Location: Unspecified
(0.0000°N, 0.0000°E)
Time: 00:02:55
(UTC+00:00)

A-11 Canister half - Pass Details

Date: 12 February 2023
Orbit: 1526 x 1682 km, 47.3° (Epoch: 29 March)

Event Time Altitude Azimuth Distance (km) Brightness Sun altitude
Rises 14:14:02 0° 284° (WNW) 4,820 12.0 57.3°
Reaches altitude 10° 14:18:26 10° 267° (W) 3,864 11.8 56.4°
Maximum altitude 14:24:45 19° 226° (SW) 3,255 11.7 54.9°
Drops below altitude 10° 14:31:13 10° 185° (S) 3,930 11.5 53.4°
Sets 14:35:50 0° 168° (SSE) 4,931 11.7 52.4°
